Regional Weather Roundup
Issued by NWS

Home | Current Version | Previous Version | Text Only | Print | Product List | Glossary Off
Versions: 1 2 3 4 5 6 7 8 9 10 11 12 13 14 15 16 17 18 19 20 21 22 23 24 25 26 27 28 29 30 31 32 33 34 35 36 37 38 39 40 41 42 43 44 45 46 47 48 49 50

000
ASUS43 KTOP 192208
RWRKS

WEATHER ROUNDUP FOR KANSAS
NATIONAL WEATHER SERVICE GOODLAND KS
400 PM CST MON FEB 19 2018

NOTE:  "FAIR" INDICATES FEW OR NO CLOUDS BELOW 12,000 FEET WITH NO
SIGNIFICANT WEATHER AND/OR OBSTRUCTIONS TO VISIBILITY.

KSZ001>006-013>018-027>032-041>047-192300-
NORTHWEST KANSAS

CITY           SKY/WX    TMP DP  RH WIND       PRES   REMARKS
GOODLAND       FLURRIES  17  11  77 NE9       29.69S
HAYS           CLOUDY    26  16  65 NE14      29.79S WCI  14
HILL CITY      CLOUDY    22  15  75 N12       29.79F WCI  10
RUSSELL        CLOUDY    28  17  63 N8        29.81R
$$

KSZ061>065-074>080-084>089-192300-
SOUTHWEST KANSAS

CITY           SKY/WX    TMP DP  RH WIND       PRES   REMARKS
DODGE CITY     CLOUDY    33  17  51 NE9       29.74S
ELKHART        PTSUNNY   41  26  56 E12       29.63F
GARDEN CITY    CLOUDY    32  17  54 NE7       29.72R
GREAT BEND     MOSUNNY   33  18  53 N10       29.79R WCI  25
LIBERAL        MOSUNNY   38  21  50 NE8       29.68F
PRATT          MOSUNNY   36  19  51 N9G16     29.78R
$$

KSZ066>073-081>083-090>101-192300-
SOUTHEAST KANSAS

CITY           SKY/WX    TMP DP  RH WIND       PRES   REMARKS
CHANUTE        CLOUDY    39  36  89 N10       29.78R WCI  32
COFFEYVILLE    LGT RAIN  42  41  96 NW13      29.77R FOG
HUTCHINSON     CLOUDY    31  23  72 N13       29.79F WCI  21
MEDICINE LODGE   N/A     35  23  61 N12       29.77F WCI  27
NEWTON         CLOUDY    30  23  75 N15       29.80S WCI  19
PARSONS        LGT RAIN  41  40  96 NW10      29.78R FOG
WICHITA INTL   CLOUDY    33  25  72 N12       29.79F WCI  24
WICHITA JABRA  CLOUDY    30  26  85 N14       29.79S WCI  19
WICHITA MCCONL CLOUDY    31  24  75 N12       29.79  WCI  22
WINFIELD       CLOUDY    33  31  92 N13       29.80S WCI  24
$$

KSZ007>012-019>026-033>040-048>060-102>105-192300-
NORTHEAST KANSAS

CITY           SKY/WX    TMP DP  RH WIND       PRES   REMARKS
CONCORDIA      CLOUDY    24  17  74 N15       29.83R WCI  11
EMPORIA        CLOUDY    32  27  81 NW12      29.80S WCI  23
LAWRENCE       CLOUDY    35  30  82 NW10      29.80S WCI  27
MANHATTAN      CLOUDY    32  22  66 VRB7      29.84R
MARYSVILLE     CLOUDY    27  23  86 N12       29.83R WCI  16
OLATHE IND     CLOUDY    34  31  88 NW14      29.79R WCI  25
OLATHE EXE     CLOUDY    34  32  92 NW10      29.77R WCI  26
SALINA         PTSUNNY   34  21  59 N10       29.83S WCI  26
TOPEKA BILLARD CLOUDY    34  28  79 N12       29.81R WCI  25
TOPEKA FORBES  CLOUDY    34  28  79 N12       29.79S WCI  25
$$



USA.gov is the U.S. government's official web portal to all federal, state and local government web resources and services.